SCP
0 0 0 0 0 0 0 0 0 0 0 0 0 0 0 0 0 0 0 0 0 0 0 0 0 0 0 0 0 0 0 0 0 0 0 0 0 0 0 0 0 0 0
0 0 0 0 0 0 0 0 0 0 0 0 0 0 0 0 0 0 0 0 0 0 0 0 0 0 0 0 0 0 0 0 0 0 0 0 0 0 0 0 0 0 0
0 0 0 0 0 0 0 0 0 0 0 0 0 0 0 0 0 0 0 0 0 0 0 0 0 0 0 0 0 0 0 0 0 0 0 0 0 0 0 0 0 0 0
0 0 0 0 0 0 0 0 0 0 0 0 0 0 0 0 0 0 0 0 0 0 0 0 0 0 0 0 0 0 0 0 0 0 0 0 0 0 0 0 0 0 0
0 0 0 0 0 0 0 0 0 0 0 0 0 0 0 0 0 0 0 0 0 0 0 0 0 0 0 0 0 0 0 0 0 0 0 0 0 0 0 0 0 0 0
0 0 0 0 0 0 0 0 0 0 0 0 0 0 0 0 0 0 0 0 0 0 0 0 0 0 0 0 0 0 0 0 0 0 0 0 0 0 0 0 0 0 0
0 0 0 0 0 0 0 0 0 0 0 0 0 0 0 0 0 0 0 0 0 0 0 0 0 0 0 0 0 0 0 0 0 0 0 0 0 0 0 0 0 0 0
0 0 0 0 0 0 0 0 0 0 0 0 0 0 0 0 0 0 0 0 0 0 0 0 0 0 0 0 0 0 0 0 0 0 0 0 0 0 0 0 0 0 0
0 0 0 0 0 0 0 0 0 0 0 0 0 0 0 0 0 0 0 0 0 0 0 0 0 0 0 0 0 0 0 0 0 0 0 0 0 0 0 0 0 0 0
0 0 0 0 0 -0 0 0 0 0 0 0 0 0 0 0 0 0 0 0 0 0 0 0 0 0 0 0 0 0 0 0 0 0 0 0 0 0 0 0 0 0 0
0 0 0 0 0 0 0 0 0 0 0 0 0 0 0 0 0 0 0 0 0 0 0 0 0 0 0 0 0 0 0 0 0 0 0 0 0 0 0 0 0 0 0
0 0 0 0 0 0 0 0 0 0 0 0 0 0 0 0 0 0 0 0 0 0 0 0 0 0 0 0 0 0 0 0 0 0 0 0 0 0 0 0 0 0 0
0 0 0 0 0 0 0 0 0 0 0 0 0 0 0 0 0 0 0 0 0 0 0 0 0 0 0 0 0 0 0 0 0 0 0 0 0 0 0 0 0 0 0
0 0 0 0 0 0 0 0 0 -0 -0 0 0 0 0 0 0 0 0 0 0 0 0 0 0 0 0 0 0 0 0 0 0 0 0 0 0 0 0 0 0 0 0
0 0 0 0 0 0 0 0 -0 -0 -0 0 0 0 0 0 0 0 0 0 0 0 0 0 0 0 0 0 0 0 0 0 0 0 0 0 0 0 0 0 0 0 0
0 0 0 0 0 0 0 0 0 0 0 0 0 0 0 0 0 0 0 0 0 0 0 0 0 0 0 0 0 0 0 0 0 0 0 0 0 0 0 0 0 0 0
0 0 0 0 0 0 0 0 0 0 0 0 0 0 0 0 0 0 0 0 0 0 0 0 0 0 0 0 0 0 0 0 0 0 0 0 0 0 0 0 0 0 0
0 0 0 0 0 0 0 0 0 0 0 0 0 0 0 0 0 0 0 0 0 0 0 0 0 0 0 0 0 0 0 0 0 0 0 0 0 0 0 0 0 0 0
0 0 0 0 0 0 0 0 0 0 0 0 0 0 0 0 0 0 0 0 0 0 0 0 0 0 0 0 0 0 0 0 0 0 0 0 0 0 0 0 0 0 0
0 0 0 0 0 0 -0 -0 -0 0 0 0 0 0 0 0 0 0 0 0 0 0 0 0 0 0 0 0 0 0 0 0 0 0 0 0 0 0 0 0 0 0 0
0 0 0 0 0 0 -0 -0 -0 -0 -0 -0 -0 0 0 0 0 0 0 0 0 0 0 0 0 0 0 0 0 0 0 0 0 0 0 0 0 0 0 0 0 0 0
0 0 0 0 0 0 -0 -0 -0 -0 -0 0 0 -0 0 0 0 0 0 0 0 0 0 0 0 0 0 0 0 0 0 0 0 0 0 0 0 0 0 0 0 0 0
0 0 0 0 0 0 -0 -0 -0 0 0 0 0 0 0 0 0 0 0 0 0 0 0 0 0 0 0 0 0 0 0 0 0 0 0 0 0 0 0 0 0 0 0
0 0 0 0 0 0 0 -0 0 0 0 0 0 0 0 0 0 0 0 0 0 0 0 0 0 0 0 0 0 0 0 0 0 0 0 0 0 0 0 0 0 0 0
0 0 0 0 0 0 0 0 0 0 0 0 0 0 0 0 0 0 0 0 0 0 0 0 0 0 0 0 0 0 0 0 0 0 0 0 0 0 0 0 0 0 0
0 0 0 0 0 0 0 0 0 0 0 0 0 0 0 0 0 0 0 0 0 0 0 0 0 0 0 0 0 0 0 0 0 0 0 0 0 0 0 0 0 0 0
Wind_Speed
9 7 6 5 4 3 4 4 4 5 4 3 3 4 4 4 4 5 6 8 8 9 9 7 8 8 8 8 9 6 6 4 4 3 1 1 1 2 3 3 3 4 4
9 7 6 4 3 3 3 4 4 4 4 4 3 3 3 3 3 3 5 8 8 9 9 9 8 9 8 9 9 7 5 4 5 4 3 1 2 3 3 3 4 4 3
10 9 7 6 4 3 3 3 3 4 4 4 2 1 1 1 2 3 4 6 7 8 8 9 8 9 9 9 10 10 9 6 6 5 5 5 5 2 2 3 3 4 4
9 8 8 7 5 4 3 2 3 2 3 3 3 4 3 3 3 2 3 4 6 7 8 8 9 9 8 8 9 10 8 8 7 5 4 3 4 4 3 1 2 3 4
9 9 8 7 6 5 4 3 1 1 1 2 3 4 3 2 1 1 2 3 3 5 6 7 7 8 8 9 9 9 9 8 8 6 4 3 2 2 3 3 3 2 3
10 10 9 9 8 6 5 5 3 3 2 1 1 2 3 2 2 2 2 2 2 3 4 5 6 7 7 9 9 10 10 9 9 7 6 5 5 5 4 4 3 3 3
11 11 12 12 11 10 8 6 5 5 4 2 1 0 1 1 2 2 2 2 2 2 4 4 5 5 6 7 7 9 9 10 10 9 7 6 5 4 4 4 3 3 2
11 12 12 11 11 11 10 8 8 7 6 4 3 2 1 1 0 1 1 1 2 2 3 3 4 5 5 6 6 7 8 8 9 9 8 6 5 5 5 5 5 3 3
11 11 11 11 11 11 11 9 9 8 8 7 6 5 4 3 2 2 1 1 1 2 2 3 4 4 5 5 6 6 7 7 8 8 8 6 5 5 5 4 5 6 6
10 10 10 10 10 10 9 9 9 8 8 8 7 6 6 5 4 3 3 2 2 2 2 2 3 4 4 4 5 5 5 6 7 6 8 8 5 5 5 5 4 4 5
8 9 9 9 9 9 9 9 10 10 9 8 8 7 7 6 5 4 4 4 3 3 2 3 3 3 3 4 4 5 5 6 6 6 7 9 7 6 6 5 5 5 4
7 7 8 9 9 9 9 9 9 9 9 8 8 7 7 7 7 6 6 5 5 4 3 3 2 2 3 3 4 5 5 7 7 7 7 7 6 8 7 6 7 6 5
6 7 7 8 9 9 8 8 9 8 8 8 8 8 8 9 8 7 7 7 6 6 5 4 3 3 3 3 4 4 5 6 6 6 7 7 7 8 7 7 7 6 5
5 6 7 7 7 8 8 8 8 8 8 8 8 8 8 8 7 7 7 7 7 6 6 5 4 4 3 3 3 4 4 4 5 6 6 7 8 8 7 7 8 7 6
5 5 6 6 7 7 7 7 7 8 8 7 8 8 7 7 7 7 7 7 7 7 6 6 6 5 4 4 5 4 4 4 5 5 5 6 8 9 8 7 8 8 7
4 4 5 5 6 7 7 7 7 7 7 7 7 7 7 7 8 8 7 7 7 6 6 6 6 6 5 9 10 7 5 4 5 5 5 5 7 8 10 11 12 12 10
3 3 4 4 5 5 5 6 6 6 7 7 7 8 8 8 8 8 8 8 7 7 7 6 6 6 7 11 11 10 6 5 4 4 4 4 4 6 5 8 11 12 14
2 2 3 3 4 4 4 5 5 6 6 6 7 7 7 7 7 7 7 7 6 6 6 6 6 6 8 12 12 11 6 5 5 4 4 5 5 5 5 5 6 6 7
2 2 2 2 3 4 4 4 5 5 6 7 7 7 7 7 7 7 7 6 6 6 6 6 7 7 8 12 12 11 4 4 5 5 5 5 5 7 7 5 6 5 4
1 1 1 2 3 4 3 4 5 5 6 7 7 7 6 6 7 7 6 5 5 6 6 7 6 6 7 11 13 11 4 5 5 4 4 7 7 8 8 5 6 7 5
0 1 1 2 3 3 3 4 4 5 6 6 6 6 6 6 6 6 5 6 6 6 6 7 7 6 8 11 13 12 5 4 5 5 4 4 9 9 9 8 6 7 6
1 1 1 2 3 3 3 4 5 6 6 6 6 7 7 6 6 6 6 6 6 6 6 6 7 5 6 9 11 14 12 10 6 5 4 5 10 10 9 7 7 8 7
1 1 1 3 3 3 3 4 5 6 6 6 7 7 7 6 6 6 7 6 5 5 6 6 7 7 5 6 13 14 15 14 8 5 8 10 10 9 6 7 8 7 5
1 1 2 3 4 4 4 4 5 6 6 6 7 6 6 7 6 6 5 6 6 6 7 7 8 8 7 6 5 6 7 10 8 5 8 10 9 7 6 6 5 4 5
1 1 1 3 4 5 5 5 5 5 6 7 6 7 6 6 6 6 6 7 6 7 9 7 7 8 8 10 15 11 7 6 7 7 4 3 3 3 3 2 3 3 4
1 1 2 3 4 4 5 5 5 5 6 7 7 6 6 6 6 7 8 11 12 15 16 15 14 10 14 19 19 18 18 17 15 9 4 4 4 4 4 4 3 3 4
Wind_Direction
295 297 292 284 273 260 246 234 230 226 207 200 196 198 208 211 210 206 205 202 198 195 193 194 186 185 190 191 187 179 179 178 149 133 160 305 235 210 208 197 190 189 184
322 322 320 311 283 267 253 242 235 227 213 209 198 193 188 202 210 210 207 203 200 198 198 194 192 190 191 189 187 179 177 178 172 156 146 205 264 240 211 196 197 193 176
329 329 332 328 318 299 271 257 243 229 217 205 186 179 164 165 198 205 212 208 202 198 199 197 195 192 193 196 193 189 186 185 190 183 169 174 206 213 220 207 200 188 180
339 340 341 339 335 316 305 276 250 235 220 194 188 185 189 202 213 203 220 215 206 201 197 200 201 199 200 200 198 197 195 184 190 202 211 196 163 170 195 221 202 192 190
352 355 353 348 349 347 341 338 325 308 250 200 199 200 208 218 208 188 204 219 220 211 203 198 201 204 205 205 200 198 199 196 196 190 184 187 189 186 174 196 197 202 209
360 3 5 6 6 4 5 9 12 8 14 30 202 196 207 209 197 206 214 221 221 219 215 208 203 207 209 207 204 201 201 203 204 201 194 185 182 188 183 189 190 201 201
4 7 8 11 13 11 10 10 19 19 17 21 4 306 212 195 210 226 228 229 228 222 221 216 211 213 215 212 207 206 208 207 208 209 209 207 201 178 173 173 178 183 184
9 9 8 10 12 11 12 18 25 21 18 21 21 22 28 60 344 296 266 251 254 246 228 221 221 219 215 214 210 209 211 210 212 212 208 209 206 192 183 177 167 170 193
8 10 9 12 11 10 12 17 25 26 21 17 19 22 20 23 12 355 349 321 291 281 249 227 227 222 216 215 209 215 213 213 214 211 209 210 208 201 200 188 180 176 196
6 5 7 9 11 11 12 19 24 23 22 21 23 23 16 9 3 6 356 335 322 307 278 252 236 224 217 221 218 217 214 217 217 212 208 212 210 205 203 197 198 199 200
2 1 2 3 8 13 16 19 19 21 21 21 23 22 14 9 11 11 0 350 339 327 303 280 259 246 235 231 230 231 220 221 222 216 211 214 205 206 206 200 199 202 196
1 2 2 4 9 14 16 17 16 18 17 17 20 19 14 13 14 7 0 357 351 345 330 310 291 267 259 246 236 235 228 224 223 219 216 216 208 211 206 203 206 206 198
3 4 4 6 9 11 13 15 14 11 12 16 19 17 15 14 11 3 358 358 357 356 354 339 318 305 285 268 257 245 239 235 230 223 219 216 210 218 212 204 205 205 198
3 5 2 2 5 8 10 11 11 8 10 15 18 17 11 7 3 360 0 0 359 358 356 349 343 330 317 306 293 276 254 249 243 231 226 218 213 218 215 210 205 198 192
360 2 1 359 2 4 4 5 5 5 6 12 14 9 2 360 359 359 358 358 359 355 351 351 351 346 336 327 316 295 275 255 249 245 236 230 225 222 217 214 203 195 195
349 355 358 1 1 359 357 358 360 359 2 10 7 360 359 0 359 355 356 357 355 351 350 349 344 340 335 333 330 318 293 275 257 252 248 241 231 228 228 225 214 202 197
328 343 346 347 349 349 350 352 349 351 2 5 2 359 358 359 354 350 353 350 344 344 343 338 335 327 323 330 327 321 310 289 273 260 253 252 243 237 228 231 226 217 212
312 325 331 334 336 340 345 344 348 353 356 357 355 352 352 351 346 347 345 338 333 332 329 327 322 317 318 326 327 325 314 295 283 270 259 252 246 236 226 219 215 214 212
260 276 297 313 331 338 340 344 349 349 351 349 345 342 341 340 341 340 334 327 326 325 323 320 319 315 313 320 323 323 304 294 287 280 272 263 250 247 240 221 211 211 213
283 296 324 344 340 331 338 350 345 346 341 333 329 329 331 331 329 324 319 318 319 317 318 316 314 309 306 315 321 322 303 297 292 284 271 267 263 255 246 231 215 211 207
302 340 347 340 325 329 345 345 339 331 321 321 323 326 326 321 317 316 317 318 317 317 316 311 309 306 308 315 318 319 310 294 291 283 278 267 266 260 252 245 231 225 201
336 352 348 331 331 341 346 334 325 316 320 323 323 321 319 317 322 318 316 316 316 315 313 311 310 305 307 313 315 316 310 305 289 280 273 270 272 266 260 255 239 223 197
291 324 321 318 324 331 332 317 313 320 324 324 320 315 315 314 314 313 313 315 314 313 314 314 312 311 308 307 312 313 312 307 298 281 280 279 274 272 258 247 239 218 193
282 315 332 326 323 329 327 308 312 322 324 320 316 314 315 314 313 310 307 308 310 309 308 309 308 308 306 301 300 298 302 303 297 286 278 279 273 271 264 250 235 212 196
293 314 309 306 310 321 322 321 323 328 325 318 314 316 314 311 312 310 304 303 288 290 300 298 296 299 300 299 303 303 297 293 286 290 275 264 262 253 247 238 232 205 189
274 304 306 306 309 317 317 321 326 327 323 321 320 317 313 313 313 312 311 308 307 308 305 302 300 294 293 300 304 305 301 299 294 291 271 265 254 247 242 233 231 219 199